Location: Mohawk View
(42.7837°N, 73.7885°W)
Time: 13:20:04
(UTC+00:00)

Geosat - Pass Details

Date: 17 June 2021
Orbit: 762 x 766 km, 108.0° (Epoch: 31 July)

Event Time Altitude Azimuth Distance (km) Brightness Sun altitude
Exits shadow 02:15:35 21° 145° (SE) 1,642 5.1 -14.2°
Maximum altitude 02:18:55 79° 61° (ENE) 783 4.0 -14.6°
Drops below altitude 10° 02:23:57 10° 336° (NNW) 2,308 7.8 -15.1°
Sets 02:26:14 0° 335° (NNW) 3,238 9.0 -15.4°
